Location: Newark
(51.3318°N, 0.0053°E)
Time: 23:55:17
(UTC+00:00)

Envisat - Pass Details

Date: 26 January 2022
Orbit: 764 x 765 km, 98.2° (Epoch: 22 May)

Event Time Altitude Azimuth Distance (km) Brightness Sun altitude
Rises 17:16:07 0° 210° (SSW) 3,220 7.2 -6.0°
Reaches altitude 10° 17:19:09 10° 229° (SW) 2,299 6.9 -6.4°
Maximum altitude 17:22:34 18° 272° (W) 1,810 6.0 -6.9°
Drops below altitude 10° 17:26:01 10° 315° (NW) 2,311 5.8 -7.4°
Sets 17:29:04 0° 334° (NNW) 3,243 6.3 -7.9°
